Location: Minneapolis
(44.9800°N, 93.2640°W)
Time: 08:12:03
(UTC-05:00)

Iridium 96 - Visible Passes

Search period start: 01 April 2015 00:00
Search period end: 11 April 2015 00:00
Orbit: 777 x 778 km, 86.4° (Epoch: 31 March)

Date Brightness Start Highest point End Pass type
(mag) Time Alt. Az. Time Alt. Az. Time Alt. Az.
01 Apr 5.7 20:02:58 10° N 20:08:14 83° W 20:13:27 10° S visible
01 Apr 8.9 21:47:06 10° WNW 21:48:11 10° WNW 21:48:57 10° W visible
02 Apr 8.4 21:11:18 10° NW 21:14:59 19° W 21:18:29 10° WSW visible
03 Apr 7.5 20:37:02 10° NNW 20:41:41 33° W 20:46:16 10° SW visible
04 Apr 6.4 20:03:09 10° N 20:08:18 58° W 20:13:24 10° SSW visible
05 Apr 8.7 21:12:19 10° NW 21:14:54 13° WNW 21:17:13 10° WSW visible
06 Apr 8.2 20:37:31 10° NNW 20:41:39 24° W 20:45:40 10° SW visible
09 Apr 8.6 20:38:14 10° NW 20:41:35 17° WNW 20:44:45 10° WSW visible
